KUIPER-00294

导读

KUIPER-00294(NORAD编号68594)是亚马逊柯伊伯(Project Kuiper)星座计划的运营卫星之一,该计划旨在构建全球卫星宽带互联网网络,计划总共部署3236颗卫星,向全球提供互联网接入服务,直接对标SpaceX Starlink。 作为亚马逊首批部署的27颗运营卫星之一,该卫星于2025年4月由联合发射联盟Atlas V火箭从佛罗里达州卡纳维拉尔角发射,进入近地轨道。卫星通过红外激光链路实现互连,单链路可支持100Gbps高速传输,配合地面终端可为用户提供最高400Mbps的宽带服务。

基本信息
目录编号:
68594
目录名称:
KUIPER-00294
国际标识:
2026-072X
轨道中心:
EARTH
卫星名称:
KUIPER-00294
卫星全名:
KUIPER-00294
卫星状态:
在轨 (已飞行164 天)
发射日期:
2026-04-04 UTC
国别 :
美国 (US)
星等 :
--
该卫星已列入 空间交会检测服务 Space Conjunction Data Service (SCDS) ,当前飞行风险评估等级: 无高风险
轨道信息
数据来源 国际轨道数据 AOE轨道数据
星历时间 2026-09-15T16:45:24+0800
14小时前
查看轨道信息
2026-09-15T22:00:00+0800
9小时前
查看轨道信息
半长轴 7007.679km 7007.706km
偏心率 0.0000717 0.0000868
轨道倾角 51.900° 51.898°
近地点辐角 104.199° 80.905°
升交点赤经 136.883° 135.918°
平近点角 255.905° 3.833°
近地点 629.039km 628.96km
远地点 630.045km 630.178km
周期 97.302分钟 97.302分钟
每日圈数 14.79931 14.799225
详细信息
使用方式:
暂无
2D轨道图
3D轨道图
轨道高度分析图
轨道倾角分析图
轨道综合分析图
查看轨道综合分析图
与全量物体交会距离演化趋势 订阅飞行安全评估服务
与全量物体交会风险概率演化趋势 订阅飞行安全评估服务